TimeCST,TemperatureF,Dew PointF,Humidity,Sea Level PressureIn,VisibilityMPH,Wind Direction,Wind SpeedMPH,Gust SpeedMPH,PrecipitationIn,Events,Conditions,WindDirDegrees,DateUTC
12:15 AM,42.8,33.8,70,30.16,10.0,SSW,3.5,-,N/A,,Clear,200,2013-03-04 06:15:00
12:35 AM,42.8,33.8,70,30.15,10.0,Calm,Calm,-,N/A,,Clear,0,2013-03-04 06:35:00
12:55 AM,44.6,33.8,66,30.14,10.0,Calm,Calm,-,N/A,,Clear,0,2013-03-04 06:55:00
1:35 AM,39.2,35.6,87,30.14,10.0,Calm,Calm,-,N/A,,Clear,0,2013-03-04 07:35:00
1:55 AM,39.2,33.8,81,30.14,10.0,Calm,Calm,-,N/A,,Clear,0,2013-03-04 07:55:00
2:15 AM,37.4,33.8,87,30.14,10.0,Calm,Calm,-,N/A,,Clear,0,2013-03-04 08:15:00
2:35 AM,37.4,33.8,87,30.14,10.0,Calm,Calm,-,N/A,,Clear,0,2013-03-04 08:35:00
2:55 AM,37.4,33.8,87,30.13,10.0,Calm,Calm,-,N/A,,Clear,0,2013-03-04 08:55:00
3:15 AM,37.4,33.8,87,30.13,10.0,Calm,Calm,-,N/A,,Clear,0,2013-03-04 09:15:00
3:35 AM,35.6,32.0,87,30.13,10.0,Calm,Calm,-,N/A,,Clear,0,2013-03-04 09:35:00
3:55 AM,33.8,32.0,93,30.13,10.0,Calm,Calm,-,N/A,,Clear,0,2013-03-04 09:55:00
4:15 AM,35.6,32.0,87,30.11,10.0,Calm,Calm,-,N/A,,Clear,0,2013-03-04 10:15:00
4:35 AM,35.6,32.0,87,30.11,10.0,Calm,Calm,-,N/A,,Clear,0,2013-03-04 10:35:00
4:55 AM,35.6,33.8,93,30.10,10.0,Calm,Calm,-,N/A,,Clear,0,2013-03-04 10:55:00
5:15 AM,37.4,35.6,93,30.10,10.0,Calm,Calm,-,N/A,,Clear,0,2013-03-04 11:15:00
5:55 AM,39.2,35.6,87,30.11,10.0,Calm,Calm,-,N/A,,Clear,0,2013-03-04 11:55:00
6:15 AM,37.4,33.8,87,30.11,10.0,Calm,Calm,-,N/A,,Clear,0,2013-03-04 12:15:00
6:35 AM,35.6,32.0,87,30.12,10.0,Calm,Calm,-,N/A,,Clear,0,2013-03-04 12:35:00
6:55 AM,35.6,33.8,93,30.11,10.0,Calm,Calm,-,N/A,,Clear,0,2013-03-04 12:55:00
7:15 AM,39.2,35.6,87,30.11,10.0,Calm,Calm,-,N/A,,Clear,0,2013-03-04 13:15:00
7:35 AM,44.6,41.0,87,30.12,10.0,Calm,Calm,-,N/A,,Clear,0,2013-03-04 13:35:00
7:55 AM,51.8,44.6,76,30.12,10.0,SE,5.8,-,N/A,,Clear,140,2013-03-04 13:55:00
8:15 AM,55.4,44.6,67,30.12,10.0,SSE,6.9,-,N/A,,Clear,150,2013-03-04 14:15:00
8:35 AM,57.2,46.4,67,30.12,10.0,South,11.5,17.3,N/A,,Clear,170,2013-03-04 14:35:00
8:55 AM,59.0,44.6,59,30.13,10.0,South,10.4,17.3,N/A,,Clear,170,2013-03-04 14:55:00
9:15 AM,60.8,44.6,55,30.11,10.0,SSE,13.8,23.0,N/A,,Clear,160,2013-03-04 15:15:00
9:35 AM,62.6,46.4,55,30.12,10.0,South,12.7,20.7,N/A,,Clear,170,2013-03-04 15:35:00
9:55 AM,62.6,44.6,52,30.11,10.0,South,13.8,23.0,N/A,,Clear,170,2013-03-04 15:55:00
10:15 AM,62.6,46.4,55,30.11,10.0,SSE,12.7,24.2,N/A,,Clear,150,2013-03-04 16:15:00
10:35 AM,64.4,46.4,52,30.11,10.0,SSE,17.3,20.7,N/A,,Clear,160,2013-03-04 16:35:00
10:55 AM,62.6,46.4,55,30.10,10.0,South,12.7,20.7,N/A,,Scattered Clouds,170,2013-03-04 16:55:00
11:15 AM,66.2,46.4,49,30.09,10.0,SSE,18.4,25.3,N/A,,Mostly Cloudy,160,2013-03-04 17:15:00
11:55 AM,68.0,46.4,46,30.07,10.0,South,18.4,27.6,N/A,,Scattered Clouds,180,2013-03-04 17:55:00
12:15 PM,68.0,46.4,46,30.06,10.0,South,19.6,24.2,N/A,,Mostly Cloudy,180,2013-03-04 18:15:00
12:55 PM,69.8,48.2,46,30.04,10.0,South,20.7,25.3,N/A,,Mostly Cloudy,170,2013-03-04 18:55:00
1:15 PM,68.0,48.2,49,30.02,10.0,South,21.9,27.6,N/A,,Mostly Cloudy,170,2013-03-04 19:15:00
1:35 PM,71.6,48.2,43,30.02,10.0,South,16.1,23.0,N/A,,Mostly Cloudy,190,2013-03-04 19:35:00
1:55 PM,69.8,46.4,43,30.00,10.0,South,17.3,25.3,N/A,,Scattered Clouds,190,2013-03-04 19:55:00
2:15 PM,69.8,48.2,46,30.00,10.0,South,20.7,27.6,N/A,,Mostly Cloudy,170,2013-03-04 20:15:00
2:35 PM,71.6,48.2,43,30.00,10.0,South,15.0,26.5,N/A,,Mostly Cloudy,180,2013-03-04 20:35:00
2:55 PM,69.8,48.2,46,29.99,10.0,South,17.3,28.8,N/A,,Scattered Clouds,170,2013-03-04 20:55:00
3:15 PM,69.8,48.2,46,29.99,10.0,South,15.0,26.5,N/A,,Scattered Clouds,180,2013-03-04 21:15:00
3:35 PM,68.0,50.0,52,29.98,10.0,South,19.6,24.2,N/A,,Scattered Clouds,190,2013-03-04 21:35:00
3:55 PM,69.8,50.0,49,29.98,10.0,South,17.3,27.6,N/A,,Mostly Cloudy,180,2013-03-04 21:55:00
4:15 PM,68.0,50.0,52,29.99,10.0,South,16.1,23.0,N/A,,Mostly Cloudy,190,2013-03-04 22:15:00
4:35 PM,68.0,50.0,52,29.98,10.0,South,13.8,-,N/A,,Mostly Cloudy,180,2013-03-04 22:35:00
4:55 PM,68.0,50.0,52,29.97,10.0,South,18.4,24.2,N/A,,Mostly Cloudy,170,2013-03-04 22:55:00
5:15 PM,68.0,51.8,56,29.97,10.0,South,16.1,-,N/A,,Scattered Clouds,170,2013-03-04 23:15:00
5:35 PM,66.2,51.8,60,29.97,10.0,South,12.7,-,N/A,,Scattered Clouds,190,2013-03-04 23:35:00
5:55 PM,66.2,51.8,60,29.97,10.0,South,13.8,17.3,N/A,,Mostly Cloudy,180,2013-03-04 23:55:00
6:15 PM,64.4,51.8,64,29.97,10.0,South,12.7,18.4,N/A,,Scattered Clouds,170,2013-03-05 00:15:00
6:35 PM,62.6,51.8,68,29.97,10.0,South,9.2,-,N/A,,Scattered Clouds,170,2013-03-05 00:35:00
6:55 PM,62.6,51.8,68,29.97,10.0,South,8.1,-,N/A,,Scattered Clouds,180,2013-03-05 00:55:00
7:15 PM,62.6,53.6,72,29.97,10.0,South,11.5,-,N/A,,Mostly Cloudy,170,2013-03-05 01:15:00
7:35 PM,62.6,51.8,68,29.97,10.0,South,9.2,-,N/A,,Mostly Cloudy,170,2013-03-05 01:35:00
7:55 PM,62.6,53.6,72,29.97,10.0,SSE,11.5,-,N/A,,Scattered Clouds,160,2013-03-05 01:55:00
8:35 PM,60.8,53.6,77,29.97,10.0,SSE,8.1,-,N/A,,Scattered Clouds,150,2013-03-05 02:35:00
8:55 PM,60.8,53.6,77,29.98,10.0,SSE,9.2,-,N/A,,Mostly Cloudy,160,2013-03-05 02:55:00
9:15 PM,60.8,53.6,77,29.98,10.0,SSE,8.1,-,N/A,,Mostly Cloudy,160,2013-03-05 03:15:00
9:35 PM,60.8,53.6,77,29.98,10.0,SSE,9.2,-,N/A,,Mostly Cloudy,150,2013-03-05 03:35:00
9:55 PM,60.8,53.6,77,29.98,10.0,South,9.2,-,N/A,,Mostly Cloudy,170,2013-03-05 03:55:00
10:15 PM,60.8,53.6,77,29.97,10.0,SSE,9.2,-,N/A,,Scattered Clouds,160,2013-03-05 04:15:00
10:35 PM,60.8,53.6,77,29.98,10.0,South,6.9,-,N/A,,Mostly Cloudy,170,2013-03-05 04:35:00
10:55 PM,60.8,53.6,77,29.98,10.0,South,6.9,-,N/A,,Overcast,170,2013-03-05 04:55:00
11:15 PM,60.8,53.6,77,29.97,10.0,SSE,5.8,-,N/A,,Mostly Cloudy,160,2013-03-05 05:15:00
11:35 PM,60.8,55.4,82,29.97,10.0,SSE,6.9,-,N/A,,Mostly Cloudy,160,2013-03-05 05:35:00
11:55 PM,60.8,55.4,82,29.97,10.0,South,4.6,-,N/A,,Mostly Cloudy,170,2013-03-05 05:55:00